Temperature
18 18 18 18 18 17 17 17 18 18 18 18 18 17 17 17 17 17 17 17 17 18 18 18 18 18 18 18 18 18 18 18 18 18 18 18 18 18 18 18 18 18 18
18 18 18 18 17 17 17 17 17 17 17 17 17 17 17 17 17 17 17 17 17 17 17 17 18 18 18 18 18 18 18 18 18 18 18 18 18 18 18 18 18 18 18
18 18 18 18 17 17 17 17 17 17 17 17 17 17 17 17 17 17 17 17 17 17 17 17 17 18 18 18 18 18 18 18 18 17 17 17 18 18 18 18 18 18 18
18 18 18 18 17 17 17 17 17 17 17 17 17 17 17 17 17 17 17 17 17 17 17 17 17 17 17 18 18 18 18 17 17 17 17 17 17 17 17 18 18 17 17
17 17 18 17 17 17 17 17 17 17 17 17 17 17 17 17 17 17 17 17 17 17 17 17 17 17 17 17 17 17 17 17 17 17 17 17 17 17 17 17 17 17 17
17 17 17 17 17 17 17 17 17 17 17 17 17 17 17 17 17 17 17 17 17 17 17 17 17 17 17 17 17 17 17 17 17 17 17 17 17 17 17 17 17 17 17
17 17 17 17 17 17 17 17 17 17 17 17 17 17 17 17 17 17 17 17 17 17 17 17 17 17 17 17 17 17 17 17 17 17 17 17 17 17 17 17 17 17 17
17 17 17 17 17 17 17 17 17 17 17 17 17 17 16 16 16 17 17 17 17 17 17 17 17 17 17 17 17 17 17 17 16 16 17 17 17 17 17 17 17 17 17
17 17 17 17 17 17 17 17 17 17 17 17 17 16 16 16 16 16 16 17 16 16 16 16 17 17 17 17 17 17 16 16 16 16 16 16 17 17 17 17 17 17 16
17 17 17 17 17 17 17 17 17 17 17 17 16 16 16 16 16 16 16 16 16 16 16 16 16 16 16 16 16 16 16 16 16 16 16 16 16 16 17 17 17 17 16
17 17 17 17 17 17 17 17 16 16 16 16 16 16 16 16 16 16 16 16 16 16 16 16 16 16 16 16 16 16 16 16 16 16 16 16 16 16 16 16 16 16 16
18 17 17 17 17 17 17 17 16 16 16 16 16 16 16 16 16 16 16 16 16 16 16 16 16 16 16 16 16 16 16 16 16 16 16 16 16 16 16 16 16 16 16
18 17 17 17 17 17 17 16 16 16 16 16 16 16 16 16 16 16 16 16 16 16 16 16 16 16 16 16 16 16 16 16 16 16 16 16 16 16 16 16 16 16 16
18 17 17 17 17 17 17 17 16 16 16 16 16 16 16 16 16 16 16 16 16 16 16 16 16 16 16 16 16 16 16 16 16 16 15 15 15 15 15 15 15 15 15
18 17 17 17 17 17 17 17 16 16 16 16 16 16 16 16 16 16 16 16 15 15 15 16 16 16 16 16 16 16 16 16 15 15 15 15 15 15 15 15 15 15 15
18 17 17 17 17 17 17 16 16 16 16 16 16 16 16 16 16 16 15 15 15 15 15 15 15 15 15 15 15 15 15 15 15 15 15 15 15 15 15 15 15 15 15
17 17 17 17 17 17 17 16 16 16 16 15 16 16 16 16 16 15 15 15 15 15 15 15 15 15 15 15 15 15 15 15 15 15 15 15 15 15 15 15 15 15 15
17 17 17 17 17 16 16 16 16 16 15 15 15 15 16 15 15 15 15 15 15 15 15 15 15 15 15 15 15 15 15 15 15 15 15 15 15 15 15 15 15 15 15
17 17 17 16 16 16 16 16 16 15 15 15 15 15 15 15 15 15 15 15 15 15 15 15 15 15 15 15 15 15 15 15 15 15 15 15 15 15 15 14 14 15 14
17 17 17 16 16 16 16 16 15 15 15 15 15 15 15 15 15 15 15 15 15 15 15 15 15 15 15 15 15 15 15 15 15 15 15 14 14 14 14 14 14 14 14
17 17 17 16 16 16 16 15 15 15 15 15 15 15 15 15 15 15 15 15 14 14 14 14 14 14 14 14 15 15 15 15 15 15 14 14 14 14 14 14 14 14 14
17 17 17 16 16 16 15 15 15 15 15 15 14 14 14 14 14 14 14 14 14 14 14 14 14 14 14 14 14 14 14 14 14 14 14 14 14 14 14 14 14 14 14
17 17 17 16 16 16 15 15 15 15 14 14 14 14 14 14 14 14 14 14 14 14 14 14 14 14 14 14 14 14 14 14 14 14 14 14 14 14 14 14 14 14 13
17 17 17 16 16 16 15 15 15 15 14 14 14 14 14 14 14 14 14 14 14 14 14 13 13 13 13 13 13 13 13 13 13 13 13 13 13 13 13 13 13 13 13
17 17 16 16 16 16 15 15 15 15 14 14 14 14 14 14 14 14 14 13 13 13 13 13 13 13 13 13 13 13 13 13 13 13 13 13 13 13 13 13 13 13 13
17 17 16 16 16 16 15 15 15 15 14 14 14 14 14 13 13 13 13 13 13 13 13 13 13 13 13 13 13 13 13 13 13 13 13 13 13 13 13 13 12 12 13
Wind_Speed
7 8 9 9 10 10 11 11 10 11 11 11 11 11 11 11 11 11 11 11 11 11 11 11 12 12 12 13 13 12 11 10 9 10 9 9 9 9 9 8 7 7 8
8 10 10 10 10 10 10 10 11 11 11 11 11 11 11 11 11 11 11 11 11 11 11 12 12 12 12 12 12 11 10 8 8 8 8 8 9 9 9 8 7 7 8
9 10 10 10 10 10 10 11 11 11 11 11 11 11 11 11 11 11 11 11 12 12 12 11 12 12 12 11 11 10 8 7 7 6 6 6 8 9 9 9 8 8 7
9 10 10 10 10 10 10 10 11 11 11 11 11 11 11 11 11 11 11 11 12 12 11 11 12 11 11 11 11 10 8 7 7 6 6 7 8 10 9 9 8 8 7
9 11 10 10 10 10 9 9 10 10 11 11 11 11 11 11 11 11 12 12 12 12 11 11 11 11 11 11 11 10 8 8 8 8 9 10 10 10 10 9 9 8 8
10 11 10 10 10 9 9 9 9 9 10 11 11 12 12 11 11 12 12 12 13 12 12 11 11 11 10 11 10 10 9 9 9 9 10 11 10 10 10 9 9 9 9
9 10 9 10 10 10 10 9 10 10 10 11 11 11 11 11 11 11 12 12 12 13 12 12 11 11 10 10 9 9 9 9 8 9 10 10 10 10 10 9 9 9 9
8 9 10 10 10 10 10 10 11 11 11 11 10 10 10 10 10 11 11 11 11 12 12 12 11 10 10 9 9 9 9 8 8 10 10 10 11 10 10 9 9 9 9
8 7 7 9 9 10 10 10 11 11 10 10 9 9 9 9 9 10 10 10 10 11 11 11 10 10 9 8 8 8 8 8 8 8 9 10 10 10 10 9 9 9 9
6 6 6 7 8 8 9 9 9 9 8 8 7 7 7 7 8 9 9 9 9 9 9 8 8 8 8 7 6 6 6 6 9 9 9 10 11 11 10 10 9 9 10
5 5 5 5 6 7 8 8 7 7 6 5 5 5 5 5 6 7 9 8 8 7 6 6 5 5 5 5 4 4 5 6 9 9 9 11 11 10 10 9 9 9 10
4 4 4 5 5 5 6 6 4 5 5 3 4 4 3 4 6 8 8 7 6 5 4 3 3 3 2 2 3 3 4 7 8 8 9 10 10 10 9 9 10 10 10
4 4 4 5 5 4 4 4 2 4 3 3 4 4 4 5 6 5 4 4 4 3 2 3 2 1 2 3 4 5 6 7 7 8 10 10 9 9 9 9 10 10 10
5 4 4 3 4 4 4 3 3 3 3 3 4 5 4 3 3 3 3 3 2 2 2 2 0 2 3 4 5 5 6 6 7 8 9 10 9 8 9 9 9 10 10
6 4 4 4 4 4 3 2 4 3 3 4 4 5 6 3 3 3 3 3 3 3 2 2 2 3 4 4 4 5 4 6 7 7 8 9 8 8 8 8 8 9 9
6 6 4 4 4 4 3 3 3 4 5 5 4 5 6 4 3 2 2 2 2 3 3 2 3 4 3 3 4 4 4 5 5 7 8 8 7 7 7 7 8 8 9
6 6 4 4 4 5 4 4 4 4 5 4 4 6 7 6 5 4 3 3 2 4 5 4 5 4 4 4 4 3 3 4 4 5 7 7 7 6 6 6 6 7 8
6 7 5 4 4 5 4 4 3 4 4 4 5 5 7 7 7 5 3 3 4 4 4 3 4 3 3 3 3 3 3 3 3 3 4 6 6 6 6 6 6 7 7
6 7 6 4 4 5 4 4 4 4 4 4 5 4 6 7 7 5 3 3 5 4 3 4 3 3 3 3 2 2 2 2 2 3 3 5 6 6 6 6 6 6 6
5 7 7 5 5 5 3 3 3 4 3 4 4 4 5 6 7 6 4 5 5 4 4 3 4 3 2 2 2 3 2 1 1 2 3 4 4 5 6 6 5 5 5
6 6 7 6 5 4 3 3 3 2 2 3 2 4 4 6 6 4 3 3 4 4 3 3 3 3 2 2 2 2 2 1 3 2 2 2 3 3 4 5 4 4 5
6 5 6 6 5 5 3 3 2 3 2 2 2 3 4 5 5 4 3 2 3 2 3 3 3 2 2 2 1 1 1 2 3 2 2 2 2 2 3 3 4 4 5
6 6 5 6 6 6 5 3 3 2 2 2 2 1 2 4 4 4 3 2 2 2 2 2 2 2 1 2 3 2 1 0 2 2 2 2 2 2 2 2 4 5 6
7 6 5 6 6 6 6 4 4 3 2 2 2 2 1 2 3 3 3 3 2 2 2 2 2 1 1 1 2 2 1 0 0 1 2 1 2 2 2 2 3 5 6
8 6 5 5 5 5 5 5 3 2 2 2 2 2 2 1 2 2 2 2 2 2 2 2 2 2 1 1 1 1 2 2 1 0 1 2 2 1 2 2 2 3 5
6 5 5 4 4 4 4 4 4 3 3 3 3 2 1 1 1 2 2 2 2 1 1 1 1 2 2 1 1 1 1 1 1 1 1 1 1 1 1 1 1 2 3
Wind_Direction
87 83 80 77 71 65 65 65 63 62 60 59 59 61 63 64 64 65 65 66 66 65 64 61 59 58 57 58 66 80 90 93 93 91 89 88 86 83 79 77 73 71 75
96 90 81 81 74 66 64 65 64 61 60 59 62 65 67 68 68 67 67 66 67 67 67 64 61 61 59 59 62 71 85 91 94 96 95 93 89 84 79 74 68 70 73
94 95 86 83 77 69 68 68 65 62 61 60 63 67 68 70 71 70 71 69 70 69 68 67 65 65 64 63 64 66 74 80 83 89 93 96 93 84 77 73 71 72 74
95 89 85 85 79 73 69 68 66 63 63 64 63 65 69 72 72 71 72 71 71 70 70 69 69 67 66 65 65 64 66 70 73 71 81 78 82 82 77 72 69 72 73
88 87 87 86 80 75 71 70 70 67 66 65 65 66 68 71 72 72 70 71 70 69 68 69 70 68 66 66 65 60 64 63 62 66 70 70 73 75 70 68 65 65 66
91 91 90 88 82 78 74 74 76 80 76 73 71 72 72 72 76 77 74 70 69 66 66 67 69 68 67 67 64 59 55 57 56 69 70 71 71 71 66 64 63 62 62
95 97 97 95 87 83 78 74 79 87 86 83 80 79 78 75 76 79 77 75 70 68 67 67 68 66 67 67 62 55 52 57 66 72 69 69 69 69 66 64 60 60 59
98 98 103 101 96 90 81 79 86 89 89 86 84 85 83 79 77 79 80 78 73 72 70 69 68 66 68 67 61 54 48 50 62 70 70 69 69 69 64 60 60 58 56
100 101 105 112 106 100 90 85 88 89 88 89 91 91 90 88 85 86 83 83 80 77 74 73 70 68 68 69 64 55 47 48 56 63 67 67 68 70 65 62 60 58 56
102 102 102 108 112 111 104 94 93 93 92 97 102 105 105 100 98 98 94 90 88 85 82 80 76 71 68 69 65 53 41 42 68 66 68 71 71 67 61 60 62 60 57
92 98 103 104 105 106 110 106 107 106 105 114 118 121 125 124 118 110 100 100 94 91 89 86 83 78 74 74 73 59 48 70 73 72 68 73 72 67 60 57 61 61 61
109 102 106 105 95 92 96 111 116 107 118 117 118 138 148 120 105 103 116 111 107 100 96 95 97 97 103 115 103 80 69 73 78 80 76 77 73 68 63 59 62 64 64
115 102 96 101 103 99 96 98 89 99 107 79 64 68 87 92 96 104 120 118 124 122 120 112 109 136 118 91 90 90 80 75 78 79 85 83 78 73 69 65 64 61 61
110 103 100 102 105 102 96 88 74 62 58 52 47 46 74 91 95 94 95 88 92 85 67 99 146 61 73 78 83 84 86 88 85 87 91 88 81 73 71 69 68 61 58
119 107 93 90 88 85 82 84 83 65 55 55 40 42 59 76 86 87 88 76 62 49 53 35 47 50 47 54 66 70 75 95 100 97 98 96 89 80 77 73 71 64 59
127 122 111 103 98 99 95 89 80 74 64 53 32 33 56 66 77 77 71 66 66 53 35 50 49 49 46 50 47 63 70 78 95 110 110 105 99 93 86 82 79 73 64
127 126 124 108 88 88 84 78 77 74 68 55 36 23 41 50 60 64 59 45 50 53 48 44 43 46 44 45 35 42 59 74 87 94 112 115 109 103 92 85 86 81 73
132 126 119 112 99 89 87 79 75 78 72 64 48 28 35 42 47 52 47 42 43 52 54 47 45 35 33 34 22 22 38 46 61 88 102 111 105 98 101 95 87 82 75
130 131 129 126 114 98 93 87 72 74 69 61 54 36 33 40 46 53 42 41 44 48 41 40 42 39 35 31 10 28 47 44 28 47 71 96 105 106 107 105 104 92 77
138 132 135 125 119 110 100 87 76 68 70 65 54 38 39 41 44 48 43 37 42 46 41 38 36 30 34 19 14 28 24 58 39 34 44 62 80 100 105 100 111 113 95
148 145 138 135 128 119 107 104 101 94 84 75 64 50 50 56 51 51 45 41 43 42 33 34 40 23 17 17 30 13 3 28 66 54 52 56 58 72 93 104 113 116 117
152 150 145 142 134 125 118 118 120 110 101 100 73 41 47 56 51 53 59 59 59 51 29 31 41 24 1 6 14 23 4 6 10 44 61 52 39 48 68 88 101 97 97
154 154 148 143 136 132 130 126 120 105 102 103 115 74 44 54 54 48 47 57 57 61 44 35 30 38 10 349 11 42 62 312 328 359 46 49 33 29 26 44 86 89 92
157 156 156 147 146 143 137 140 143 149 158 156 146 136 114 76 68 53 45 50 58 54 40 26 34 28 51 358 356 12 31 78 106 323 336 29 34 32 16 21 68 86 88
157 157 158 148 140 136 145 150 153 154 146 135 123 113 115 102 83 74 74 63 57 44 37 25 24 11 31 34 356 342 345 352 343 184 285 325 353 2 10 1 60 91 94
135 138 140 132 130 136 154 150 155 152 143 127 116 124 121 93 66 51 60 68 69 35 29 27 15 6 356 360 348 352 344 339 311 317 263 275 283 282 309 2 25 93 112
Height
1508 1507 1507 1506 1506 1506 1505 1505 1505 1505 1505 1505 1505 1504 1504 1504 1504 1505 1505 1505 1505 1505 1505 1505 1504 1503 1501 1498 1496 1496 1501 1505 1508 1510 1512 1513 1514 1515 1516 1516 1517 1517 1518
1508 1508 1508 1507 1507 1507 1506 1506 1506 1506 1506 1506 1506 1506 1506 1506 1506 1506 1506 1506 1506 1506 1506 1506 1505 1505 1504 1503 1502 1503 1505 1508 1510 1512 1513 1514 1515 1516 1517 1517 1517 1518 1518
1509 1508 1508 1508 1508 1508 1507 1507 1507 1507 1507 1507 1507 1507 1508 1507 1508 1508 1508 1508 1508 1508 1507 1507 1507 1507 1507 1506 1506 1506 1508 1510 1512 1513 1514 1515 1516 1517 1517 1518 1518 1518 1519
1509 1509 1509 1509 1509 1508 1508 1508 1508 1508 1508 1508 1509 1509 1509 1509 1509 1510 1510 1509 1509 1509 1509 1509 1509 1509 1509 1509 1509 1509 1510 1512 1513 1515 1516 1517 1517 1518 1518 1518 1519 1519 1519
1510 1510 1510 1510 1509 1509 1509 1508 1508 1508 1509 1509 1510 1510 1510 1511 1511 1511 1511 1511 1511 1511 1511 1510 1510 1510 1510 1511 1511 1511 1511 1513 1515 1516 1517 1517 1518 1518 1519 1519 1519 1520 1520
1511 1511 1511 1511 1510 1510 1509 1507 1507 1508 1509 1510 1511 1511 1512 1512 1512 1513 1513 1513 1513 1512 1512 1512 1512 1512 1512 1512 1513 1513 1513 1515 1516 1517 1518 1518 1519 1519 1519 1520 1520 1520 1520
1512 1512 1512 1512 1511 1510 1508 1506 1505 1507 1510 1511 1512 1513 1513 1514 1514 1514 1514 1514 1514 1514 1514 1514 1514 1513 1513 1514 1514 1515 1516 1516 1517 1517 1518 1519 1519 1520 1520 1520 1520 1520 1520
1513 1513 1513 1513 1513 1512 1510 1507 1506 1508 1511 1513 1514 1514 1515 1515 1515 1515 1516 1516 1516 1516 1516 1515 1515 1515 1515 1515 1516 1516 1517 1518 1518 1519 1519 1519 1520 1520 1520 1521 1521 1521 1521
1514 1514 1514 1514 1514 1514 1513 1511 1511 1512 1514 1515 1515 1516 1516 1517 1517 1517 1517 1517 1517 1517 1517 1517 1517 1517 1517 1517 1518 1518 1519 1519 1519 1520 1520 1520 1521 1521 1521 1521 1521 1521 1521
1516 1516 1516 1516 1516 1516 1515 1515 1515 1515 1516 1517 1517 1518 1518 1518 1518 1519 1519 1519 1519 1519 1519 1519 1519 1519 1519 1519 1519 1520 1520 1520 1520 1520 1521 1521 1521 1522 1522 1522 1522 1521 1521
1517 1517 1517 1517 1518 1518 1517 1517 1517 1518 1518 1519 1519 1519 1519 1520 1520 1521 1521 1521 1521 1521 1521 1521 1521 1521 1521 1521 1521 1521 1521 1521 1522 1521 1522 1522 1522 1522 1522 1522 1522 1522 1521
1518 1518 1519 1519 1519 1519 1519 1519 1519 1520 1520 1520 1520 1520 1520 1521 1522 1522 1522 1523 1523 1523 1523 1523 1523 1523 1523 1523 1523 1523 1523 1523 1522 1522 1523 1523 1523 1523 1523 1523 1522 1522 1522
1518 1519 1520 1520 1521 1521 1521 1521 1521 1521 1521 1521 1521 1520 1519 1521 1522 1523 1523 1524 1524 1524 1524 1525 1524 1524 1524 1525 1525 1524 1524 1524 1524 1524 1524 1524 1524 1524 1523 1523 1523 1523 1523
1519 1520 1520 1521 1522 1522 1522 1522 1522 1522 1522 1522 1521 1520 1518 1520 1522 1524 1524 1525 1525 1526 1526 1526 1526 1526 1526 1526 1526 1526 1526 1525 1525 1525 1525 1525 1525 1524 1524 1524 1524 1523 1523
1519 1520 1521 1522 1522 1522 1522 1523 1523 1523 1524 1523 1523 1522 1521 1522 1523 1524 1526 1526 1527 1527 1527 1527 1527 1527 1527 1527 1527 1527 1527 1527 1526 1526 1526 1526 1525 1525 1525 1525 1525 1524 1524
1519 1520 1521 1522 1522 1522 1523 1523 1524 1524 1524 1524 1524 1524 1524 1524 1525 1526 1527 1527 1527 1527 1528 1528 1528 1528 1528 1528 1528 1528 1528 1528 1528 1527 1527 1526 1526 1526 1526 1526 1525 1525 1525
1519 1519 1521 1522 1522 1523 1523 1524 1524 1525 1525 1525 1525 1525 1526 1526 1526 1527 1527 1528 1528 1528 1528 1528 1528 1528 1528 1528 1528 1528 1528 1528 1528 1528 1528 1527 1527 1527 1527 1526 1526 1525 1525
1518 1519 1521 1522 1522 1523 1524 1524 1525 1525 1526 1526 1526 1527 1527 1527 1528 1528 1528 1528 1529 1529 1529 1529 1528 1528 1528 1529 1529 1529 1529 1529 1529 1529 1529 1528 1528 1527 1527 1527 1526 1526 1525
1518 1519 1520 1521 1522 1523 1524 1525 1525 1526 1526 1527 1527 1527 1528 1528 1528 1528 1528 1529 1529 1529 1529 1529 1529 1529 1529 1529 1529 1529 1529 1529 1529 1529 1529 1529 1528 1528 1528 1527 1527 1527 1526
1518 1519 1520 1521 1522 1523 1524 1525 1525 1526 1526 1527 1527 1528 1528 1528 1529 1529 1529 1529 1529 1529 1529 1529 1529 1529 1529 1529 1529 1529 1529 1529 1529 1529 1529 1529 1529 1529 1528 1528 1527 1527 1527
1517 1519 1519 1521 1522 1523 1523 1524 1525 1526 1526 1527 1528 1528 1529 1529 1529 1529 1529 1529 1529 1529 1529 1529 1529 1529 1529 1529 1529 1529 1529 1529 1529 1529 1529 1529 1529 1529 1529 1528 1528 1527 1527
1516 1517 1519 1520 1521 1522 1523 1524 1525 1526 1526 1527 1528 1528 1529 1529 1529 1529 1529 1529 1529 1529 1529 1529 1529 1529 1529 1529 1529 1529 1529 1530 1529 1529 1529 1529 1529 1529 1528 1528 1528 1527 1527
1514 1516 1518 1519 1520 1521 1522 1524 1525 1525 1526 1527 1527 1528 1528 1529 1529 1529 1529 1529 1529 1529 1529 1529 1529 1529 1529 1529 1529 1530 1530 1529 1529 1529 1529 1528 1528 1528 1528 1528 1527 1527 1526
1512 1514 1517 1518 1519 1520 1522 1523 1523 1524 1525 1526 1527 1527 1528 1528 1528 1528 1528 1528 1529 1529 1529 1529 1529 1529 1528 1528 1529 1529 1530 1530 1529 1529 1529 1528 1528 1528 1527 1527 1527 1526 1525
1510 1513 1515 1517 1518 1520 1520 1521 1522 1523 1524 1525 1526 1527 1527 1527 1527 1527 1527 1527 1528 1528 1528 1528 1528 1528 1528 1528 1528 1528 1528 1528 1529 1528 1528 1527 1527 1527 1526 1526 1526 1525 1525
1509 1511 1513 1515 1517 1518 1519 1520 1521 1522 1523 1524 1525 1525 1526 1526 1526 1527 1527 1527 1526 1527 1527 1527 1527 1527 1527 1527 1527 1527 1527 1527 1527 1527 1527 1526 1525 1525 1525 1525 1525 1524 1524